Location: Maiden
(35.5760°N, 81.2120°W)
Time: 02:05:48
(UTC-04:00)

Vanguard 2 - Pass Details

Date: 11 August 2020
Orbit: 553 x 2937 km, 32.9° (Epoch: 20 September)

Event Time Altitude Azimuth Distance (km) Brightness Sun altitude
Rises 00:14:53 0° 269° (W) 6,569 12.5 -36.3°
Reaches altitude 10° 00:19:37 10° 268° (W) 5,335 12.0 -36.6°
Enters shadow 00:33:51 76° 217° (SW) 1,953 9.2 -37.6°
Maximum altitude 00:34:30 78° 186° (S) 1,902 - -37.6°
Drops below altitude 10° 00:43:22 10° 102° (ESE) 3,340 - -38.1°
Sets 00:45:40 0° 100° (E) 4,059 - -38.2°
